Weather in Blagoveshchenskoye

Russia / Arkhangel'skaya Oblast'     61°27′37″N   42°33′26″E
temp.,
°C
wind,
m/s
gust,
m/s
humid.,
%
clouds,
%
prec.,
mm/h
press.,
hPa
HPBL,
m
20 june, sun
sun2000:00+15ene127541 0.0 101912
03:00+14ese227537 0.0 102045
06:00+17se247279 0.3 1020199
09:00+23s24653 0.4 1019762
12:00+29wsw473514 0.0 10172673
15:00+32wsw472823 0.0 10153194
18:00+31w373310 0.0 10142887
21:00+23wsw225839 0.0 101518
21 june, mon
mon2100:00+19wsw226634 0.0 101536
03:00+18sw22707 0.0 101638
06:00+23wnw275960 0.0 1016235
09:00+28w374137 0.0 10161441
12:00+31w463146 0.0 10162554
15:00+32w45251 0.0 10162681
18:00+31w35305 0.0 10162610
21:00+24wsw11576 0.0 101611
22 june, tue
tue2200:00+21sw22650 0.0 101719
03:00+19ssw22672 0.0 101716
06:00+24ssw24606 0.0 1017160
09:00+30w23395 0.0 1017920
12:00+34w45284 0.0 10172812
15:00+34wsw342951 0.0 10162804
18:00+33wsw453314 0.0 10152242
21:00+21wnw4127634 0.4 1017375
23 june, wed
wed2300:00+18s259594 2.3 101894
03:00+17wsw229450 2.8 101836
06:00+20ssw128476 0.3 1018134
09:00+27sw125070 0.3 1018543
12:00+32sw233692 0.0 10171456
15:00+34wsw24312 0.0 10162534
18:00+32wsw3636100 0.0 1014738
21:00+23nw51376100 0.3 1016418
24 june, thu
thu2400:00+20s118878 0.4 101618
03:00+18s239552 2.6 101661
06:00+22sw2786100 0.0 1015233
09:00+29w465087 0.0 10151150
12:00+32w463783 0.0 10152031
15:00+31wnw3643100 0.0 10141287
18:00+26nne026321 0.1 1015331
21:00+24ne237389 0.1 101566